This is the latest recevied weather packets stored in our database for station/object N6SPP. If no packets are shown the sender has not sent any weather packets the latest 10 day(s).
| Time | Temp. | Humidity | Pressure | Rain* | Wind** | Luminosity | Snow |
|---|---|---|---|---|---|---|---|
| 1777901647 | 12.22° C | 83% | 1016.4 hPa | 0 mm | - | 23 W/m² | - |
| 1777901344 | 12.22° C | 83% | 1016.4 hPa | 0 mm | - | 16 W/m² | - |
| 1777901041 | 12.22° C | 83% | 1016.4 hPa | 0 mm | - | 12 W/m² | - |
| 1777900739 | 12.22° C | 82% | 1016.4 hPa | 0 mm | - | 9 W/m² | - |
| 1777900435 | 12.22° C | 82% | 1016.4 hPa | 0 mm | - | 5 W/m² | - |
| 1777900133 | 12.22° C | 82% | 1016.4 hPa | 0 mm | - | 3 W/m² | - |
| 1777899829 | 12.22° C | 83% | 1016.2 hPa | 0 mm | - | 2 W/m² | - |
| 1777899526 | 12.22° C | 83% | 1016.2 hPa | 0 mm | - | 1 W/m² | - |
| 1777899224 | 12.22° C | 83% | 1016.1 hPa | 0 mm | - | 0 W/m² | - |
| 1777898921 | 12.22° C | 84% | 1016.1 hPa | 0 mm | - | 0 W/m² | - |
| 1777898618 | 12.22° C | 84% | 1016.2 hPa | 0 mm | - | 0 W/m² | - |
| 1777898315 | 12.22° C | 84% | 1016 hPa | 0 mm | - | 0 W/m² | - |
| 1777898012 | 12.22° C | 85% | 1015.9 hPa | 0 mm | - | 0 W/m² | - |
| 1777897709 | 12.22° C | 85% | 1016 hPa | 0 mm | - | 0 W/m² | - |
| 1777897405 | 12.22° C | 85% | 1016.2 hPa | 0 mm | - | 0 W/m² | - |
| 1777897101 | 12.22° C | 85% | 1016.3 hPa | 0 mm | - | 0 W/m² | - |
| 1777896798 | 12.22° C | 84% | 1016.3 hPa | 0 mm | - | 0 W/m² | - |
| 1777896495 | 12.22° C | 84% | 1016.1 hPa | 0 mm | - | 0 W/m² | - |
| 1777896192 | 12.22° C | 84% | 1016.3 hPa | 0 mm | - | 0 W/m² | - |
| 1777895890 | 12.22° C | 84% | 1016.3 hPa | 0 mm | - | 0 W/m² | - |
| 1777895588 | 12.22° C | 84% | 1016.3 hPa | 0 mm | - | 0 W/m² | - |
| 1777895284 | 12.22° C | 83% | 1016.3 hPa | 0 mm | - | 0 W/m² | - |
| 1777894983 | 12.22° C | 83% | 1016.4 hPa | 0 mm | - | 0 W/m² | - |
| 1777894680 | 12.22° C | 83% | 1016.7 hPa | 0 mm | - | 0 W/m² | - |
| 1777894376 | 12.22° C | 82% | 1016.6 hPa | 0 mm | - | 0 W/m² | - |
* Rain latest hour (hover to see other rain measurements)
** Current wind speed in m/s (hover to see current wind gust speed)